Scottsboro, AL

2:39 PM CST on December 07, 2016 (GMT -0600)
Scottsboro

Weather History for K4A6 - August, 2014

Change the Weather History Date:

Monday, August 25, 2014

  Actual Average (KHSV) Record (KHSV)
Temperature  
Mean Temperature 78 °F 80 °F  
Max Temperature 84 °F 91 °F 99 °F (1959)
Min Temperature 71 °F 69 °F 53 °F (1942)
Degree Days  
Heating Degree Days 0 0  
Month to date heating degree days 0  
Since 1 June heating degree days 1  
Since 1 July heating degree days 0  
Cooling Degree Days 12 15  
Month to date cooling degree days 389  
Year to date cooling degree days 1514  
Since 1 June cooling degree days 1251  
Growing Degree Days 28 (Base 50)    
Moisture  
Dew Point 68 °F    
Average Humidity 74    
Maximum Humidity 100    
Minimum Humidity 58    
Precipitation  
Precipitation 0.00 in 0.10 in 2.21 in (2008)
Month to date precipitation 2.97  
Year to date precipitation 35.68  
Snow  
Snow 0.00 in - - ()
Month to date snowfall  
Since 1 June snowfall  
Since 1 July snowfall  
Snow Depth -    
Sea Level Pressure  
Sea Level Pressure 30.06 in    
Wind  
Wind Speed 2 mph (East)    
Max Wind Speed 7 mph    
Max Gust Speed -    
Visibility 10 miles    
Events Rain    
T = Trace of Precipitation, MM = Missing Value Source: NWS Daily Summary

Daily Weather History Graph

Daily Weather History Graph

Search for Another Location

Airport or City:

Trip Planner

Search our weather history database for the weather conditions in past years. The results will help you decide how hot, cold, wet, or windy it might be!

Date:

Astronomy

Aug. 25, 2014 Rise Set
Actual Time 6:11 AM CDT 7:19 PM CDT
Civil Twilight 5:45 AM CDT 7:45 PM CDT
Nautical Twilight 5:14 AM CDT 8:16 PM CDT
Astronomical Twilight 4:42 AM CDT 8:48 PM CDT
Moon 6:14 AM CDT (8/25) 7:12 PM CDT (8/25)
Length of Visible Light 13h 59m
Length of Day
13h 07m
New Moon, 0% of the Moon is Illuminated
Aug 25
New Moon
Sep 2
First Quarter
Sep 8
Full
Sep 15
Last Quarter
Sep 24
New

Hourly Weather History & Observations

Time (CDT) Temp. Heat Index Dew Point Humidity Pressure Visibility Wind Dir Wind Speed Gust Speed Precip Events Conditions
12:15 AM 77.0 °F - 68.0 °F 74% 30.04 in 10.0 mi Calm Calm - N/A   Unknown
12:35 AM 77.0 °F - 68.0 °F 74% 30.04 in 10.0 mi ENE 3.5 mph - N/A   Unknown
12:55 AM 77.0 °F - 68.0 °F 74% 30.03 in 10.0 mi East 5.8 mph - N/A   Overcast
1:15 AM 77.0 °F - 68.0 °F 74% 30.04 in 10.0 mi Calm Calm - N/A   Overcast
1:35 AM 77.0 °F - 68.0 °F 74% 30.04 in 10.0 mi NE 3.5 mph - N/A   Overcast
1:55 AM 75.2 °F - 68.0 °F 78% 30.05 in 10.0 mi North 3.5 mph - N/A   Overcast
2:15 AM 75.2 °F - 68.0 °F 78% 30.05 in 10.0 mi Calm Calm - N/A   Unknown
2:35 AM 75.2 °F - 66.2 °F 73% 30.05 in 10.0 mi ENE 6.9 mph - N/A   Unknown
2:55 AM 75.2 °F - 68.0 °F 78% 30.04 in 10.0 mi NE 5.8 mph - N/A   Overcast
3:15 AM 75.2 °F - 68.0 °F 78% 30.04 in 10.0 mi Calm Calm - N/A   Mostly Cloudy
3:35 AM 73.4 °F - 68.0 °F 83% 30.05 in 10.0 mi Calm Calm - N/A   Partly Cloudy
3:55 AM 73.4 °F - 68.0 °F 83% 30.05 in 10.0 mi Calm Calm - N/A   Mostly Cloudy
4:15 AM 73.4 °F - 68.0 °F 83% 30.05 in 10.0 mi Calm Calm - N/A   Mostly Cloudy
4:35 AM 73.4 °F - 68.0 °F 83% 30.05 in 10.0 mi Calm Calm - N/A   Mostly Cloudy
4:55 AM 73.4 °F - 68.0 °F 83% 30.06 in 10.0 mi Calm Calm - N/A   Scattered Clouds
5:15 AM 73.4 °F - 66.2 °F 78% 30.06 in 10.0 mi ESE 3.5 mph - N/A   Mostly Cloudy
5:35 AM 73.4 °F - 66.2 °F 78% 30.06 in 10.0 mi ESE 4.6 mph - N/A   Mostly Cloudy
5:55 AM 73.4 °F - 66.2 °F 78% 30.07 in 10.0 mi Calm Calm - N/A   Mostly Cloudy
6:15 AM 73.4 °F - 66.2 °F 78% 30.07 in 10.0 mi East 3.5 mph - N/A   Scattered Clouds
6:35 AM 73.4 °F - 66.2 °F 78% 30.08 in 10.0 mi Calm Calm - N/A   Clear
6:55 AM 71.6 °F - 68.0 °F 88% 30.08 in 9.0 mi Calm Calm - N/A   Clear
7:15 AM 73.4 °F - 66.2 °F 78% 30.09 in 10.0 mi Calm Calm - N/A   Scattered Clouds
7:35 AM 73.4 °F - 66.2 °F 78% 30.09 in 10.0 mi Calm Calm - N/A   Partly Cloudy
7:55 AM 75.2 °F - 66.2 °F 73% 30.10 in 10.0 mi Calm Calm - N/A   Scattered Clouds
8:15 AM 75.2 °F - 66.2 °F 73% 30.10 in 10.0 mi ESE 3.5 mph - N/A Rain Light Rain
8:35 AM 75.2 °F - 66.2 °F 73% 30.09 in 10.0 mi SE 4.6 mph - N/A   Mostly Cloudy
8:55 AM 75.2 °F - 66.2 °F 73% 30.10 in 10.0 mi South 3.5 mph - N/A   Mostly Cloudy
9:35 AM 77.0 °F - 66.2 °F 69% 30.10 in 10.0 mi East 6.9 mph - N/A   Partly Cloudy
9:55 AM 77.0 °F - 66.2 °F 69% 30.10 in 10.0 mi East 5.8 mph - N/A   Clear
10:15 AM 77.0 °F - 64.4 °F 65% 30.10 in 10.0 mi South 5.8 mph - N/A   Clear
10:35 AM 78.8 °F - 66.2 °F 65% 30.10 in 10.0 mi South 5.8 mph - N/A   Clear
10:55 AM 80.6 °F 82.7 °F 66.2 °F 61% 30.10 in 10.0 mi South 6.9 mph - N/A   Clear
11:15 AM 80.6 °F 82.7 °F 66.2 °F 61% 30.10 in 10.0 mi ESE 3.5 mph - N/A   Clear
11:35 AM 80.6 °F 82.7 °F 66.2 °F 61% 30.09 in 10.0 mi Calm Calm - N/A   Partly Cloudy
11:55 AM 80.6 °F 82.7 °F 66.2 °F 61% 30.09 in 10.0 mi Calm Calm - N/A   Scattered Clouds
12:15 PM 80.6 °F 82.7 °F 66.2 °F 61% 30.09 in 10.0 mi East 3.5 mph - N/A   Scattered Clouds
12:35 PM 80.6 °F 82.3 °F 64.4 °F 58% 30.09 in 10.0 mi Calm Calm - N/A   Mostly Cloudy
12:55 PM 80.6 °F 82.7 °F 66.2 °F 61% 30.08 in 10.0 mi Calm Calm - N/A   Mostly Cloudy
1:15 PM 80.6 °F 82.7 °F 66.2 °F 61% 30.08 in 10.0 mi East 5.8 mph - N/A   Partly Cloudy
1:35 PM 82.4 °F 84.6 °F 66.2 °F 58% 30.08 in 10.0 mi Calm Calm - N/A   Scattered Clouds
1:55 PM 82.4 °F 84.6 °F 66.2 °F 58% 30.07 in 10.0 mi Calm Calm - N/A   Mostly Cloudy
2:15 PM 82.4 °F 85.4 °F 68.0 °F 62% 30.07 in 10.0 mi ENE 3.5 mph - N/A   Mostly Cloudy
2:35 PM 82.4 °F 85.4 °F 68.0 °F 62% 30.06 in 10.0 mi NNE 5.8 mph - N/A   Scattered Clouds
2:55 PM 82.4 °F 85.4 °F 68.0 °F 62% 30.06 in 10.0 mi NE 4.6 mph - N/A   Mostly Cloudy
3:15 PM 82.4 °F 85.4 °F 68.0 °F 62% 30.05 in 10.0 mi North 3.5 mph - N/A   Mostly Cloudy
3:35 PM 84.2 °F 87.3 °F 68.0 °F 58% 30.04 in 10.0 mi North 5.8 mph - N/A   Scattered Clouds
3:55 PM 84.2 °F 87.3 °F 68.0 °F 58% 30.04 in 10.0 mi NNE 5.8 mph - N/A   Clear
4:15 PM 84.2 °F 87.3 °F 68.0 °F 58% 30.03 in 10.0 mi East 3.5 mph - N/A   Clear
4:35 PM 84.2 °F 87.3 °F 68.0 °F 58% 30.03 in 10.0 mi East 3.5 mph - N/A   Clear
4:55 PM 84.2 °F 87.3 °F 68.0 °F 58% 30.02 in 10.0 mi East 3.5 mph - N/A   Clear
5:15 PM 84.2 °F 87.3 °F 68.0 °F 58% 30.02 in 10.0 mi ESE 3.5 mph - N/A   Clear
5:35 PM 84.2 °F 87.3 °F 68.0 °F 58% 30.02 in 10.0 mi Calm Calm - N/A   Clear
5:55 PM 82.4 °F 85.4 °F 68.0 °F 62% 30.01 in 10.0 mi Calm Calm - N/A   Clear
6:15 PM 82.4 °F 85.4 °F 68.0 °F 62% 30.01 in 10.0 mi Calm Calm - N/A   Clear
6:35 PM 82.4 °F 87.2 °F 71.6 °F 70% 30.01 in 10.0 mi Calm Calm - N/A   Clear
6:55 PM 80.6 °F 85.4 °F 73.4 °F 79% 30.01 in 10.0 mi Calm Calm - N/A   Clear
7:15 PM 78.8 °F - 71.6 °F 78% 30.02 in 10.0 mi Calm Calm - N/A   Clear
7:35 PM 77.0 °F - 71.6 °F 83% 30.02 in 10.0 mi Calm Calm - N/A   Clear
7:55 PM 77.0 °F - 71.6 °F 83% 30.02 in 10.0 mi Calm Calm - N/A   Clear
8:15 PM 75.2 °F - 71.6 °F 89% 30.04 in 10.0 mi Calm Calm - N/A   Clear
8:35 PM 75.2 °F - 71.6 °F 89% 30.04 in 10.0 mi Calm Calm - N/A   Partly Cloudy
8:55 PM 75.2 °F - 71.6 °F 89% 30.05 in 10.0 mi Calm Calm - N/A   Unknown
9:15 PM 73.4 °F - 71.6 °F 94% 30.06 in 10.0 mi Calm Calm - N/A   Overcast
9:35 PM 73.4 °F - 71.6 °F 94% 30.07 in 10.0 mi Calm Calm - N/A   Mostly Cloudy
9:55 PM 73.4 °F - 71.6 °F 94% 30.07 in 10.0 mi Calm Calm - N/A   Unknown
10:15 PM 73.4 °F - 71.6 °F 94% 30.07 in 10.0 mi Calm Calm - N/A   Scattered Clouds
10:35 PM 73.4 °F - 71.6 °F 94% 30.08 in 10.0 mi Calm Calm - N/A   Clear
10:55 PM 71.6 °F - 71.6 °F 100% 30.08 in 10.0 mi Calm Calm - N/A   Unknown
11:15 PM 71.6 °F - 71.6 °F 100% 30.08 in 9.0 mi Calm Calm - N/A   Mostly Cloudy
11:35 PM 73.4 °F - 71.6 °F 94% 30.09 in 10.0 mi Calm Calm - N/A   Overcast
11:55 PM 73.4 °F - 71.6 °F 94% 30.09 in 10.0 mi West 3.5 mph - N/A   Overcast